Location: Pedholt
(56.0260°N, 10.2097°E)
Time: 00:26:11
(UTC+00:00)

Transit 2A Rocket - Pass Details

Date: 03 August 2021
Orbit: 586 x 917 km, 66.7° (Epoch: 27 September)

Event Time Altitude Azimuth Distance (km) Brightness Sun altitude
Rises 15:52:04 0° 269° (W) 2,974 9.3 27.3°
Reaches altitude 10° 15:54:31 10° 280° (W) 2,112 8.7 26.9°
Maximum altitude 15:58:46 30° 342° (NNW) 1,272 6.5 26.3°
Drops below altitude 10° 16:03:23 10° 44° (NE) 2,309 7.1 25.7°
Sets 16:06:11 0° 55° (NE) 3,299 7.8 25.3°
